Voltar ao catálogo

CZ-4C DEB

AtivoLEO
NORAD 47535·DEBRIS·🇨🇳 China

Lançado Jan 29, 2021 de Jiuquan Satellite Launch Center

Loading…

Próximas Passagens (próximas 24 horas)

TLE

AtualizadoSource: Space-Track

Época: Sep 14, 2026, 11:44 UTC

1 47535U 21007D   26257.48946801 -.00000004  00000-0  13364-3 0  9991
2 47535  63.4040 285.3355 0181698   1.5669 358.5888 13.44269730276092

Acompanhe CZ-4C DEB em tempo real com AllMySat

Download on the App Store